This is the latest recevied weather packets stored in our database for station/object KN6CRX. If no packets are shown the sender has not sent any weather packets the latest 10 day(s).
| Time | Temp. | Humidity | Pressure | Rain* | Wind** | Luminosity | Snow |
|---|---|---|---|---|---|---|---|
| 1787604286 | 32.22° C | 27% | 1021.6 hPa | 0 mm | - | 853 W/m² | - |
| 1787603982 | 32.78° C | 27% | 1021.6 hPa | 0 mm | - | 858 W/m² | - |
| 1787603681 | 32.78° C | 26% | 1021.8 hPa | 0 mm | - | 865 W/m² | - |
| 1787603376 | 32.78° C | 27% | 1021.8 hPa | 0 mm | - | 868 W/m² | - |
| 1787603073 | 32.78° C | 26% | 1021.6 hPa | 0 mm | - | 866 W/m² | - |
| 1787602770 | 32.22° C | 27% | 1021.8 hPa | 0 mm | - | 867 W/m² | - |
| 1787602468 | 31.67° C | 28% | 1022 hPa | 0 mm | - | 875 W/m² | - |
| 1787602163 | 31.11° C | 29% | 1022.2 hPa | 0 mm | - | 873 W/m² | - |
| 1787601862 | 31.67° C | 27% | 1022.3 hPa | 0 mm | - | 876 W/m² | - |
| 1787601558 | 31.67° C | 28% | 1022.3 hPa | 0 mm | - | 875 W/m² | - |
| 1787601253 | 31.67° C | 28% | 1022.3 hPa | 0 mm | - | 875 W/m² | - |
| 1787600952 | 31.11° C | 25% | 1022.5 hPa | 0 mm | - | 877 W/m² | - |
| 1787600647 | 31.11° C | 29% | 1022.5 hPa | 0 mm | - | 876 W/m² | - |
| 1787600342 | 31.11° C | 30% | 1022.9 hPa | 0 mm | - | 874 W/m² | - |
| 1787600038 | 30.56° C | 30% | 1022.5 hPa | 0 mm | - | 875 W/m² | - |
| 1787599735 | 30.56° C | 30% | 1022.6 hPa | 0 mm | - | 872 W/m² | - |
| 1787599430 | 30.56° C | 28% | 1022.6 hPa | 0 mm | - | 869 W/m² | - |
| 1787599127 | 30° C | 32% | 1022.9 hPa | 0 mm | - | 866 W/m² | - |
| 1787598822 | 30° C | 31% | 1022.9 hPa | 0 mm | - | 864 W/m² | - |
| 1787598518 | 30° C | 32% | 1023 hPa | 0 mm | - | 862 W/m² | - |
| 1787598212 | 29.44° C | 33% | 1023 hPa | 0 mm | - | 856 W/m² | - |
| 1787597908 | 29.44° C | 33% | 1023.1 hPa | 0 mm | - | 851 W/m² | - |
| 1787597607 | 29.44° C | 36% | 1023.1 hPa | 0 mm | - | 842 W/m² | - |
| 1787597306 | 28.89° C | 34% | 1023.1 hPa | 0 mm | - | 416 W/m² | - |
| 1787597002 | 29.44° C | 31% | 1023.2 hPa | 0 mm | - | 840 W/m² | - |
* Rain latest hour (hover to see other rain measurements)
** Current wind speed in m/s (hover to see current wind gust speed)